Location: Unspecified
(0.0000°N, 0.0000°E)
Time: 18:27:22
(UTC+00:00)

Vanguard 1 - Pass Details

Date: 21 April 2026
Orbit: 654 x 3817 km, 34.2° (Epoch: 18 May)

Event Time Altitude Azimuth Distance (km) Brightness Sun altitude
Rises 19:07:42 0° 242° (WSW) 5,116 14.5 -16.9°
Reaches altitude 10° 19:10:27 10° 245° (WSW) 4,445 14.2 -17.5°
Maximum altitude 19:23:50 68° 325° (NW) 3,100 12.6 -20.8°
Drops below altitude 10° 19:46:07 10° 46° (NE) 6,881 14.0 -26.2°
Sets 19:51:47 0° 48° (NE) 7,944 14.4 -27.6°
